This is the latest recevied weather packets stored in our database for station/object K6HFP. If no packets are shown the sender has not sent any weather packets the latest 10 day(s).
| Time | Temp. | Humidity | Pressure | Rain* | Wind** | Luminosity | Snow |
|---|---|---|---|---|---|---|---|
| 1777515182 | 25° C | 34% | 1013.2 hPa | 0 mm | - | 40 W/m² | - |
| 1777514878 | 25° C | 33% | 1013.1 hPa | 0 mm | - | 39 W/m² | - |
| 1777514575 | 25° C | 34% | 1013.1 hPa | 0 mm | - | 49 W/m² | - |
| 1777514273 | 25° C | 35% | 1013 hPa | 0 mm | - | 54 W/m² | - |
| 1777513968 | 25° C | 34% | 1013.3 hPa | 0 mm | - | 54 W/m² | - |
| 1777513666 | 25° C | 32% | 1013.2 hPa | 0 mm | - | 65 W/m² | - |
| 1777513363 | 25° C | 34% | 1013.3 hPa | 0 mm | - | 91 W/m² | - |
| 1777513058 | 25° C | 36% | 1013.2 hPa | 0 mm | - | 106 W/m² | - |
| 1777512755 | 25.56° C | 36% | 1013.3 hPa | 0 mm | - | 128 W/m² | - |
| 1777512452 | 25.56° C | 34% | 1013.4 hPa | 0 mm | - | 169 W/m² | - |
| 1777512149 | 25° C | 35% | 1013.4 hPa | 0 mm | - | 194 W/m² | - |
| 1777511847 | 25.56° C | 35% | 1013.4 hPa | 0 mm | - | 184 W/m² | - |
| 1777511544 | 25.56° C | 34% | 1013.4 hPa | 0 mm | - | 204 W/m² | - |
| 1777511241 | 25° C | 37% | 1013.6 hPa | 0 mm | - | 225 W/m² | - |
| 1777510936 | 25° C | 34% | 1013.6 hPa | 0 mm | - | 254 W/m² | - |
| 1777510633 | 25° C | 34% | 1013.4 hPa | 0 mm | - | 278 W/m² | - |
| 1777510330 | 25° C | 35% | 1013.5 hPa | 0 mm | - | 311 W/m² | - |
| 1777510026 | 24.44° C | 36% | 1013.6 hPa | 0 mm | - | 333 W/m² | - |
| 1777509722 | 25° C | 33% | 1013.7 hPa | 0 mm | - | 352 W/m² | - |
| 1777509418 | 25.56° C | 32% | 1013.5 hPa | 0 mm | - | 372 W/m² | - |
| 1777509116 | 25.56° C | 34% | 1013.5 hPa | 0 mm | - | 390 W/m² | - |
| 1777508813 | 25.56° C | 34% | 1013.5 hPa | 0 mm | - | 410 W/m² | - |
| 1777508510 | 25.56° C | 35% | 1013.7 hPa | 0 mm | - | 430 W/m² | - |
| 1777508207 | 25° C | 38% | 1013.7 hPa | 0 mm | - | 448 W/m² | - |
| 1777507903 | 24.44° C | 38% | 1013.7 hPa | 0 mm | - | 466 W/m² | - |
* Rain latest hour (hover to see other rain measurements)
** Current wind speed in m/s (hover to see current wind gust speed)